GW6293 Weather Reports


time (UTC)temp
C
wind
direction
speed
KPH
gust
KPH
rain 1hr
cm
rain 24hr
cm
rain mn
cm
humidity
%
barometer
mb
20260502150929 29 233 1.6 11.3 0.00 0.00 0.00 63 1010.1
20260502122929 23 323 1.6 3.2 0.00 0.00 0.00 89 1008.7
20260502121928 23 263 1.6 3.2 0.00 0.00 0.00 88 1008.7
20260502115929 23 306 0.0 3.2 0.00 0.00 0.00 87 1008.6
20260502114929 23 318 0.0 1.6 0.00 0.00 0.00 88 1008.5
20260502113929 23 314 0.0 3.2 0.00 0.00 0.00 88 1008.5
20260502112930 23 326 0.0 1.6 0.00 0.00 0.00 88 1008.5
20260502111933 23 214 0.0 3.2 0.00 0.00 0.00 88 1008.4
20260502105929 23 114 0.0 4.8 0.00 0.00 0.00 88 1008.4
20260502104929 23 309 3.2 4.8 0.00 0.00 0.00 88 1008.4
20260502103929 23 258 0.0 1.6 0.00 0.00 0.00 88 1008.3
20260502102929 23 243 0.0 1.6 0.00 0.00 0.00 87 1008.6
20260502100930 24 345 1.6 3.2 0.00 0.00 0.00 87 1008.5
20260502090929 25 326 1.6 3.2 0.00 0.00 0.00 84 1008.6
20260502070929 26 237 0.0 1.6 0.00 0.00 0.00 81 1009.6
20260502065929 27 290 0.0 1.6 0.00 0.00 0.00 81 1009.7
20260502062918 27 284 0.0 3.2 0.00 0.00 0.00 79 1009.8
20260502060918 27 124 0.0 1.6 0.00 0.00 0.00 77 1009.7
20260502055918 27 220 0.0 3.2 0.00 0.00 0.00 77 1009.8
20260502054918 27 75 0.0 3.2 0.00 0.00 0.00 76 1009.8
20260502051918 27 193 0.0 3.2 0.00 0.00 0.00 75 1009.4
20260502050918 28 146 0.0 3.2 0.00 0.00 0.00 75 1009.4
20260502045918 28 164 0.0 3.2 0.00 0.00 0.00 75 1009.2
20260502044918 28 212 0.0 3.2 0.00 0.00 0.00 74 1009.2
20260502042922 28 150 0.0 3.2 0.00 0.00 0.00 74 1008.7
20260502035918 28 305 0.0 3.2 0.00 0.00 0.00 74 1008.5
20260502033918 28 250 0.0 3.2 0.00 0.00 0.00 74 1008.3
20260502031918 28 79 1.6 3.2 0.00 0.00 0.00 73 1007.9
20260502030918 28 286 0.0 3.2 0.00 0.00 0.00 73 1008.1
20260502025918 28 20 1.6 3.2 0.00 0.00 0.00 73 1007.8
20260502024918 28 120 1.6 3.2 0.00 0.00 0.00 73 1007.7
20260502023918 28 274 0.0 4.8 0.00 0.00 0.00 73 1007.6
20260502021918 28 293 0.0 3.2 0.00 0.00 0.00 74 1007.3
20260502020918 28 281 0.0 3.2 0.00 0.00 0.00 74 1007.0
20260502015917 28 247 0.0 3.2 0.00 0.00 0.00 74 1007.1
20260502013919 28 256 0.0 4.8 0.00 0.00 0.00 74 1006.9
20260502012918 28 267 3.2 4.8 0.00 0.00 0.00 74 1006.8
20260502011917 28 242 3.2 6.4 0.00 0.00 0.00 73 1006.6
20260502010918 28 244 0.0 4.8 0.00 0.00 0.00 73 1006.4
20260502005917 28 129 0.0 4.8 0.00 0.00 0.00 72 1006.5
20260502004917 28 257 3.2 6.4 0.00 0.00 0.00 72 1006.6
20260502003918 28 223 4.8 8.0 0.00 0.00 0.00 72 1006.1
20260502001918 29 249 3.2 8.0 0.00 0.00 0.00 71 1005.9
20260502000917 29 253 1.6 9.7 0.00 0.00 0.00 71 1006.1
20260501235918 29 229 4.8 9.7 0.00 0.00 0.00 71 1006.0
20260501233918 30 271 3.2 16.1 0.00 0.00 0.00 69 1006.0
20260501231918 29 187 4.8 17.7 0.00 0.00 0.00 72 1005.8
20260501230918 29 159 11.3 16.1 0.00 0.00 0.00 71 1005.8
20260501224918 29 218 6.4 17.7 0.00 0.00 0.00 68 1005.8
20260501222918 29 170 14.5 14.5 0.00 0.00 0.00 67 1005.9
20260501221918 29 265 3.2 16.1 0.00 0.00 0.00 69 1006.0
20260501220915 29 169 14.5 19.3 0.00 0.00 0.00 71 1006.2
20260501215914 29 168 14.5 19.3 0.00 0.00 0.00 71 1006.3
20260501214915 30 148 11.3 24.1 0.00 0.00 0.00 69 1006.1
20260501213915 30 300 3.2 19.3 0.00 0.00 0.00 70 1006.2
20260501212915 30 194 4.8 24.1 0.00 0.00 0.00 70 1006.3
20260501210914 29 163 9.7 22.5 0.00 0.00 0.00 72 1006.8
20260501205914 30 126 4.8 16.1 0.00 0.00 0.00 68 1006.6
20260501204918 30 242 4.8 14.5 0.00 0.00 0.00 66 1006.8
20260501203915 31 229 4.8 11.3 0.00 0.00 0.00 66 1006.9
20260501201914 30 259 4.8 16.1 0.00 0.00 0.00 69 1007.3
20260501200914 30 238 3.2 16.1 0.00 0.00 0.00 68 1007.5
20260501195914 30 122 3.2 19.3 0.00 0.00 0.00 69 1007.6
20260501193915 30 171 12.9 14.5 0.00 0.00 0.00 71 1008.0
20260501192915 30 182 4.8 12.9 0.00 0.00 0.00 70 1008.3
20260501191915 30 142 3.2 20.9 0.00 0.00 0.00 70 1008.4
20260501184915 30 232 1.6 19.3 0.00 0.00 0.00 71 1009.0
20260501183915 29 162 12.9 16.1 0.00 0.00 0.00 70 1009.1
20260501182915 30 116 4.8 14.5 0.00 0.00 0.00 70 1008.9
20260501181915 30 332 3.2 20.9 0.00 0.00 0.00 71 1009.3
20260501180915 29 178 6.4 20.9 0.00 0.00 0.00 72 1009.4
20260501175915 29 198 11.3 19.3 0.00 0.00 0.00 73 1009.5
20260501174915 30 196 8.0 19.3 0.00 0.00 0.00 70 1009.4
20260501173915 30 187 4.8 14.5 0.00 0.00 0.00 67 1009.6
20260501172915 30 158 8.0 19.3 0.00 0.00 0.00 68 1009.5
20260501171914 30 77 3.2 16.1 0.00 0.00 0.00 67 1009.8
20260501170914 30 147 3.2 14.5 0.00 0.00 0.00 68 1009.7
20260501165914 30 180 4.8 16.1 0.00 0.00 0.00 66 1009.8
20260501164914 30 120 3.2 14.5 0.00 0.00 0.00 66 1009.8
20260501163914 30 221 8.0 12.9 0.00 0.00 0.00 62 1010.0
20260501161914 30 165 6.4 14.5 0.00 0.00 0.00 61 1010.2
20260501160914 30 199 6.4 14.5 0.00 0.00 0.00 59 1010.0
20260501155914 30 284 3.2 11.3 0.00 0.00 0.00 58 1010.1
20260501153914 30 162 3.2 9.7 0.00 0.00 0.00 61 1010.3